Le Luc, France

6:25 PM CEST on July 28, 2017 (GMT +0200)
Le Cannet Army

Weather History for LFMC - February, 2013

Change the Weather History Date:

Thursday, February 7, 2013

  Actual Average Record
Temperature  
Mean Temperature 46 °F -  
Max Temperature 53 °F 56 °F - ()
Min Temperature 39 °F 41 °F - ()
Degree Days  
Heating Degree Days 19    
Moisture  
Dew Point 14 °F    
Average Humidity 29    
Maximum Humidity 42    
Minimum Humidity 24    
Precipitation  
Precipitation 0.00 in - - ()
Sea Level Pressure  
Sea Level Pressure 29.69 in    
Wind  
Wind Speed 16 mph ()    
Max Wind Speed 25 mph    
Max Gust Speed 37 mph    
Visibility 6.2 miles    
Events      
T = Trace of Precipitation, MM = Missing Value Source: Averaged Metar Reports

Daily Weather History Graph

Daily Weather History Graph

Search for Another Location

Airport or City:

Trip Planner

Search our weather history database for the weather conditions in past years. The results will help you decide how hot, cold, wet, or windy it might be!

Date:

Astronomy

Feb. 07, 2013 Rise Set
Actual Time 7:43 AM CET 5:54 PM CET
Civil Twilight 7:13 AM CET 6:24 PM CET
Nautical Twilight 6:39 AM CET 6:58 PM CET
Astronomical Twilight 6:06 AM CET 7:31 PM CET
Moon 5:11 AM CET (2/7) 2:58 PM CET (2/7)
Length of Visible Light 11h 10m
Length of Day
10h 11m
Waning Crescent, 11% of the Moon is Illuminated
Feb 7
Waning Crescent
Feb 10
New
Feb 17
First Quarter
Feb 25
Full
Mar 4
Last Quarter

Hourly Weather History & Observations

Time (CET) Temp. Windchill Dew Point Humidity Pressure Visibility Wind Dir Wind Speed Gust Speed Precip Events Conditions
7:00 AM 39.2 °F 28.3 °F 17.6 °F 42% 29.56 in - WNW 25.3 mph 36.8 mph N/A   Clear
8:04 AM 41.0 °F 31.4 °F 15.8 °F 36% 29.56 in 6.2 mi WNW 21.9 mph - N/A   Mostly Cloudy
9:00 AM 41.0 °F 33.9 °F 14.0 °F 33% 29.59 in 6.2 mi WNW 12.7 mph - N/A   Scattered Clouds
10:00 AM 42.8 °F 35.1 °F 14.0 °F 31% 29.62 in 6.2 mi WNW 16.1 mph - N/A   Scattered Clouds
11:00 AM 46.4 °F 43.5 °F 15.8 °F 29% 29.62 in 6.2 mi West 5.8 mph - N/A   Scattered Clouds
12:00 PM 51.8 °F - 15.8 °F 24% 29.65 in 6.2 mi NW 11.5 mph - N/A   Partly Cloudy
1:10 PM 51.8 °F - 15.8 °F 24% 29.62 in - WNW 19.6 mph - N/A   Clear
2:00 PM 51.8 °F - 15.8 °F 24% 29.62 in 6.2 mi NW 20.7 mph - N/A   Partly Cloudy
3:00 PM 53.6 °F - 17.6 °F 24% 29.65 in 6.2 mi WNW 17.3 mph - N/A   Partly Cloudy
4:00 PM 51.8 °F - 15.8 °F 24% 29.65 in 6.2 mi WNW 18.4 mph - N/A   Scattered Clouds
5:00 PM 50.0 °F - 17.6 °F 28% 29.68 in 6.2 mi WNW 18.4 mph - N/A   Partly Cloudy
6:00 PM 46.4 °F 38.7 °F 15.8 °F 29% 29.71 in 6.2 mi WNW 20.7 mph - N/A   Partly Cloudy
7:00 PM 44.6 °F 36.1 °F 14.0 °F 29% 29.74 in 6.2 mi WNW 21.9 mph - N/A   Partly Cloudy
7:30 PM 42.8 °F 33.8 °F 12.2 °F 29% 29.74 in 6.2 mi WNW 21.9 mph - N/A   Unknown
8:00 PM 42.8 °F 33.5 °F 12.2 °F 29% 29.74 in 6.2 mi WNW 23.0 mph - N/A   Unknown
8:30 PM 42.8 °F 33.5 °F 12.2 °F 29% 29.77 in 6.2 mi WNW 23.0 mph - N/A   Unknown
9:00 PM 42.8 °F 34.0 °F 12.2 °F 29% 29.77 in 6.2 mi WNW 20.7 mph - N/A   Unknown
9:30 PM 42.8 °F 34.3 °F 12.2 °F 29% 29.77 in 6.2 mi WNW 19.6 mph - N/A   Unknown
10:00 PM 42.8 °F 34.3 °F 12.2 °F 29% 29.77 in 6.2 mi WNW 19.6 mph - N/A   Unknown
10:30 PM 41.0 °F 32.2 °F 12.2 °F 31% 29.77 in 6.2 mi WNW 18.4 mph - N/A   Unknown
11:00 PM 41.0 °F 32.5 °F 14.0 °F 33% 29.77 in 6.2 mi West 17.3 mph - N/A   Unknown
11:30 PM 41.0 °F 33.9 °F 14.0 °F 33% 29.80 in 6.2 mi West 12.7 mph - N/A   Unknown